Location: Beccas
(43.4309°N, 0.1528°E)
Time: 10:04:11
(UTC+00:00)

Okean-O - Pass Details

Date: 15 October 2021
Orbit: 639 x 640 km, 98.2° (Epoch: 02 December)

Event Time Altitude Azimuth Distance (km) Brightness Sun altitude
Exits shadow 17:43:52 - 102° (ESE) 2,409 5.0 -5.8°
Reaches altitude 10° 17:45:30 10° 86° (E) 2,035 4.5 -6.1°
Maximum altitude 17:47:24 13° 60° (ENE) 1,863 4.5 -6.5°
Drops below altitude 10° 17:49:19 10° 35° (NE) 2,041 4.8 -6.8°
Sets 17:52:42 0° 7° (N) 2,956 5.9 -7.4°
